Location: Newark
(33.6333°S, 78.8500°W)
Time: 11:48:26
(UTC+00:00)

Tiros 1 despin weight - Pass Details

Date: 20 September 2019
Orbit: 593 x 643 km, 48.2° (Epoch: 19 October)

Event Time Altitude Azimuth Distance (km) Brightness Sun altitude
Rises 04:56:09 0° 308° (NW) 2,859 - -57.4°
Reaches altitude 10° 04:58:26 10° 307° (NW) 1,969 - -57.5°
Maximum altitude 05:02:58 85° 218° (SW) 631 - -57.5°
Drops below altitude 10° 05:07:38 10° 129° (SE) 2,019 - -57.6°
Sets 05:09:59 0° 128° (SE) 2,940 - -57.6°
